User: anonymous   Login
Location: Monroe
(41.9160°N, 83.3980°W)
Time: 08:05:25
(UTC-05:00)
Language:

ISS - Orbit

View from above orbital plane
View from above orbital plane
View from above satellite
View from above satellite

Ground track
Ground track

The orbit data is extracted from the following two-line orbital elements,

1 25544U 98067A   15031.10507769  .00015206  00000-0  23593-3 0  8016
2 25544 051.6463 048.5377 0005876 311.1205 154.3082 15.54182581926707
Epoch (UTC): 31 January 2015 02:31:18
Eccentricity: 0.0005876
inclination: 51.6463°
perigee height: 400 km
apogee height: 408 km
right ascension of ascending node: 48.5377°
argument of perigee: 311.1205°
revolutions per day: 15.54182581
mean anomaly at epoch: 154.3082°
orbit number at epoch: 92670

The dashed part of the orbit path shows where the satellite is in the earth's shadow,  

DLR